When you browse on this site, cookies collect data to enhance your experience and personalize the content and advertising you see.
Visit our Privacy Policy to learn more. By continuing to use the site, you agree to this use of cookies and data.
  • In Hungary
  • List of Countries
  • For 7 days
  • Water Temperature
  • Satellite Maps
  • Weather Map
  • News
  • Weather Widgets
  • user-avatar
    Login

    Hourly Weather Kano

    Today, 18 January, Friday

    Time Temperature Precipitation Wind Pressure Humidity
    00:00 +21°C° 0 mm 3 mps 719 mmHg 11%
    01:00 +20°C° 0 mm 3 mps 719 mmHg 11%
    02:00 +19°C° 0 mm 3 mps 719 mmHg 12%
    03:00 +18°C° 0 mm 2 mps 719 mmHg 13%
    04:00 +18°C° 0 mm 2 mps 718 mmHg 13%
    05:00 +17°C° 0 mm 2 mps 718 mmHg 14%
    06:00 +17°C° 0 mm 2 mps 719 mmHg 15%
    07:00 +17°C° 0 mm 2 mps 719 mmHg 16%
    08:00 +20°C° 0 mm 3 mps 719 mmHg 14%
    09:00 +22°C° 0 mm 4 mps 720 mmHg 12%
    10:00 +26°C° 0 mm 4 mps 720 mmHg 9%
    11:00 +29°C° 0 mm 4 mps 720 mmHg 8%
    12:00 +32°C° 0 mm 5 mps 719 mmHg 7%
    13:00 +33°C° 0 mm 4 mps 719 mmHg 7%
    14:00 +34°C° 0 mm 5 mps 719 mmHg 7%
    15:00 +35°C° 0 mm 5 mps 718 mmHg 7%
    16:00 +36°C° 0 mm 5 mps 718 mmHg 7%
    17:00 +33°C° 0 mm 4 mps 718 mmHg 8%
    18:00 +30°C° 0 mm 4 mps 718 mmHg 9%
    19:00 +27°C° 0 mm 3 mps 718 mmHg 11%
    20:00 +27°C° 0 mm 3 mps 718 mmHg 11%
    21:00 +26°C° 0 mm 3 mps 719 mmHg 12%
    22:00 +25°C° 0 mm 3 mps 719 mmHg 13%
    23:00 +24°C° 0 mm 3 mps 719 mmHg 14%

    Tomorrow, 19 January, Saturday

    Time Temperature Precipitation Wind Pressure Humidity
    00:00 +22°C° 0 mm 3 mps 719 mmHg 14%
    01:00 +22°C° 0 mm 3 mps 719 mmHg 15%
    02:00 +21°C° 0 mm 3 mps 719 mmHg 16%
    03:00 +20°C° 0 mm 3 mps 718 mmHg 17%
    04:00 +20°C° 0 mm 3 mps 718 mmHg 18%
    05:00 +19°C° 0 mm 2 mps 718 mmHg 19%
    06:00 +19°C° 0 mm 2 mps 718 mmHg 20%
    07:00 +18°C° 0 mm 2 mps 718 mmHg 21%
    08:00 +21°C° 0 mm 3 mps 719 mmHg 17%
    09:00 +25°C° 0 mm 3 mps 719 mmHg 14%
    10:00 +28°C° 0 mm 4 mps 720 mmHg 11%
    11:00 +32°C° 0 mm 4 mps 720 mmHg 9%
    12:00 +34°C° 0 mm 4 mps 719 mmHg 8%
    13:00 +36°C° 0 mm 4 mps 719 mmHg 7%
    14:00 +37°C° 0 mm 3 mps 718 mmHg 7%
    15:00 +37°C° 0 mm 3 mps 718 mmHg 7%
    16:00 +38°C° 0 mm 3 mps 717 mmHg 7%
    17:00 +35°C° 0 mm 3 mps 717 mmHg 9%
    18:00 +33°C° 0 mm 3 mps 717 mmHg 10%
    19:00 +29°C° 0 mm 2 mps 717 mmHg 11%
    20:00 +28°C° 0 mm 3 mps 718 mmHg 11%
    21:00 +28°C° 0 mm 3 mps 718 mmHg 12%
    22:00 +27°C° 0 mm 3 mps 719 mmHg 12%
    23:00 +26°C° 0 mm 3 mps 719 mmHg 13%

    Day after tomorrow, 20 January, Sunday

    Time Temperature Precipitation Wind Pressure Humidity
    00:00 +25°C° 0 mm 2 mps 718 mmHg 14%
    01:00 +24°C° 0 mm 2 mps 718 mmHg 15%
    02:00 +23°C° 0 mm 2 mps 718 mmHg 16%
    03:00 +21°C° 0 mm 2 mps 718 mmHg 16%
    04:00 +21°C° 0 mm 2 mps 717 mmHg 17%
    05:00 +20°C° 0 mm 2 mps 717 mmHg 18%
    06:00 +20°C° 0 mm 2 mps 718 mmHg 18%
    07:00 +19°C° 0 mm 2 mps 718 mmHg 19%
    08:00 +24°C° 0 mm 2 mps 718 mmHg 16%
    09:00 +27°C° 0 mm 2 mps 719 mmHg 13%
    10:00 +31°C° 0 mm 3 mps 720 mmHg 11%
    11:00 +34°C° 0 mm 3 mps 719 mmHg 10%
    12:00 +36°C° 0 mm 2 mps 719 mmHg 8%
    13:00 +38°C° 0 mm 2 mps 718 mmHg 7%
    14:00 +39°C° 0 mm 2 mps 718 mmHg 7%
    15:00 +39°C° 0 mm 1 mps 717 mmHg 8%
    16:00 +36°C° 0 mm 0 mps 716 mmHg 8%
    17:00 +36°C° 0 mm 1 mps 716 mmHg 9%
    18:00 +33°C° 0 mm 1 mps 717 mmHg 11%
    19:00 +30°C° 0 mm 2 mps 717 mmHg 13%
    20:00 +29°C° 0 mm 2 mps 717 mmHg 13%
    21:00 +29°C° 0 mm 2 mps 718 mmHg 14%
    22:00 +28°C° 0 mm 2 mps 718 mmHg 14%
    23:00 +27°C° 0 mm 2 mps 718 mmHg 15%

    21 January, Monday

    Time Temperature Precipitation Wind Pressure Humidity
    00:00 +25°C° 0 mm 2 mps 718 mmHg 17%
    01:00 +24°C° 0 mm 1 mps 718 mmHg 18%
    02:00 +24°C° 0 mm 1 mps 717 mmHg 19%
    03:00 +23°C° 0 mm 1 mps 717 mmHg 19%
    04:00 +23°C° 0 mm 1 mps 717 mmHg 20%
    05:00 +23°C° 0 mm 2 mps 717 mmHg 19%
    06:00 +23°C° 0 mm 2 mps 717 mmHg 19%
    07:00 +23°C° 0 mm 2 mps 718 mmHg 19%
    08:00 +26°C° 0 mm 3 mps 718 mmHg 16%
    09:00 +29°C° 0 mm 3 mps 719 mmHg 14%
    10:00 +33°C° 0 mm 3 mps 720 mmHg 11%
    11:00 +34°C° 0 mm 3 mps 719 mmHg 10%
    12:00 +36°C° 0 mm 3 mps 719 mmHg 9%
    13:00 +38°C° 0 mm 3 mps 718 mmHg 8%
    14:00 +38°C° 0 mm 3 mps 717 mmHg 8%
    15:00 +39°C° 0 mm 2 mps 717 mmHg 8%
    16:00 +39°C° 0 mm 2 mps 716 mmHg 8%
    17:00 +37°C° 0 mm 2 mps 716 mmHg 9%
    18:00 +34°C° 0 mm 2 mps 716 mmHg 11%
    19:00 +31°C° 0 mm 2 mps 716 mmHg 12%
    20:00 +30°C° 0 mm 3 mps 717 mmHg 13%
    21:00 +29°C° 0 mm 3 mps 717 mmHg 13%
    22:00 +29°C° 0 mm 3 mps 718 mmHg 13%
    23:00 +27°C° 0 mm 2 mps 718 mmHg 14%

    22 January, Tuesday

    Time Temperature Precipitation Wind Pressure Humidity
    00:00 +26°C° 0 mm 2 mps 717 mmHg 15%
    01:00 +25°C° 0 mm 2 mps 717 mmHg 17%
    02:00 +24°C° 0 mm 2 mps 717 mmHg 17%
    03:00 +24°C° 0 mm 2 mps 716 mmHg 18%
    04:00 +23°C° 0 mm 2 mps 716 mmHg 19%
    05:00 +21°C° 0 mm 2 mps 717 mmHg 20%
    06:00 +22°C° 0 mm 1 mps 717 mmHg 21%
    07:00 +21°C° 0 mm 1 mps 717 mmHg 22%
    08:00 +24°C° 0 mm 1 mps 718 mmHg 19%
    09:00 +27°C° 0 mm 1 mps 719 mmHg 15%
    10:00 +30°C° 0 mm 2 mps 720 mmHg 12%
    11:00 +32°C° 0 mm 2 mps 719 mmHg 10%
    12:00 +35°C° 0 mm 2 mps 718 mmHg 9%
    13:00 +37°C° 0 mm 2 mps 718 mmHg 8%
    14:00 +38°C° 0 mm 2 mps 717 mmHg 8%
    15:00 +38°C° 0 mm 2 mps 716 mmHg 8%
    16:00 +37°C° 0 mm 1 mps 716 mmHg 8%
    17:00 +36°C° 0 mm 2 mps 716 mmHg 9%
    18:00 +34°C° 0 mm 2 mps 716 mmHg 10%
    19:00 +31°C° 0 mm 3 mps 716 mmHg 12%
    20:00 +30°C° 0 mm 3 mps 716 mmHg 12%
    21:00 +29°C° 0 mm 3 mps 717 mmHg 12%
    22:00 +29°C° 0 mm 3 mps 717 mmHg 12%
    23:00 +28°C° 0 mm 2 mps 717 mmHg 13%

    23 January, Wednesday

    Time Temperature Precipitation Wind Pressure Humidity
    00:00 +27°C° 0 mm 2 mps 717 mmHg 14%
    01:00 +26°C° 0 mm 1 mps 717 mmHg 14%
    02:00 +25°C° 0 mm 2 mps 716 mmHg 15%
    03:00 +25°C° 0 mm 2 mps 716 mmHg 16%
    04:00 +24°C° 0 mm 2 mps 716 mmHg 16%
    05:00 +23°C° 0 mm 1 mps 716 mmHg 17%
    06:00 +22°C° 0 mm 1 mps 716 mmHg 19%
    07:00 +20°C° 0 mm 0 mps 717 mmHg 20%
    08:00 +25°C° 0 mm 1 mps 717 mmHg 17%
    09:00 +28°C° 0 mm 2 mps 718 mmHg 14%
    10:00 +32°C° 0 mm 2 mps 719 mmHg 11%
    11:00 +34°C° 0 mm 2 mps 718 mmHg 10%
    12:00 +36°C° 0 mm 2 mps 718 mmHg 9%
    13:00 +37°C° 0 mm 2 mps 717 mmHg 8%
    14:00 +38°C° 0 mm 2 mps 717 mmHg 9%
    15:00 +38°C° 0 mm 2 mps 716 mmHg 9%
    16:00 +39°C° 0 mm 2 mps 715 mmHg 9%
    17:00 +36°C° 0 mm 2 mps 716 mmHg 11%
    18:00 +34°C° 0 mm 2 mps 716 mmHg 12%
    19:00 +31°C° 0 mm 2 mps 716 mmHg 13%
    20:00 +30°C° 0 mm 3 mps 716 mmHg 13%
    21:00 +29°C° 0 mm 3 mps 717 mmHg 13%
    22:00 +29°C° 0 mm 4 mps 717 mmHg 13%
    23:00 +28°C° 0 mm 3 mps 717 mmHg 13%
    Show more